Location: Asheville, NC
(35.6000°N, 82.5500°W)
Time: 04:43:42
(UTC-05:00)

Tiangong 2 - Pass Details

Date: 07 December 2017
Orbit: 384 x 390 km, 42.8° (Epoch: 17 January)

Event Time Altitude Azimuth Distance (km) Brightness Sun altitude
Exits shadow 05:22:57 19° 49° (NE) 1,012 3.5 -24.5°
Drops below altitude 10° 05:24:17 10° 68° (ENE) 1,411 4.6 -24.2°
Sets 05:26:35 0° 82° (E) 2,267 6.2 -23.8°
